Weather History for KLBF - June, 2014

Change the Weather History Date:

Tuesday, June 3, 2014

  Actual Average Record
Temperature  
Mean Temperature 75 °F 64 °F  
Max Temperature 93 °F 77 °F 95 °F (1933)
Min Temperature 57 °F 50 °F 33 °F (1876)
Degree Days  
Heating Degree Days 0 4  
Month to date heating degree days 2 12  
Since 1 June heating degree days 2 12  
Since 1 July heating degree days 6832 6647  
Cooling Degree Days 10 2  
Month to date cooling degree days 11 6  
Year to date cooling degree days 60 34  
Since 1 June cooling degree days 11 6  
Growing Degree Days 25 (Base 50)    
Moisture  
Dew Point 61 °F    
Average Humidity 66    
Maximum Humidity 90    
Minimum Humidity 41    
Precipitation  
Precipitation 0.09 in 0.13 in 2.25 in (1883)
Month to date precipitation 0.73 0.39  
Year to date precipitation 5.02 7.83  
Snow  
Snow 0.00 in 0.00 in 0.00 in ()
Month to date snowfall 0.0 0.0  
Since 1 June snowfall 0.0 0.0  
Since 1 July snowfall 29.8 28.5  
Snow Depth 0.00 in    
Sea Level Pressure  
Sea Level Pressure 29.76 in    
Wind  
Wind Speed 14 mph (ESE)    
Max Wind Speed 31 mph    
Max Gust Speed 40 mph    
Visibility 9 miles    
Events Rain , Thunderstorm    
T = Trace of Precipitation, MM = Missing Value Source: NWS Daily Summary

Daily Weather History Graph

Daily Weather History Graph

Search for Another Location

Airport or City:

Trip Planner

Search our weather history database for the weather conditions in past years. The results will help you decide how hot, cold, wet, or windy it might be!

Date:

Astronomy

Jun. 03, 2014 Rise Set
Actual Time 6:11 AM CDT 9:10 PM CDT
Civil Twilight 5:38 AM CDT 9:43 PM CDT
Nautical Twilight 4:56 AM CDT 10:25 PM CDT
Astronomical Twilight 4:07 AM CDT 11:14 PM CDT
Moon 11:38 AM CDT (6/3) 12:37 AM CDT (6/3)
Length of Visible Light 16h 05m
Length of Day
14h 58m
Waxing Crescent, 30% of the Moon is Illuminated
Jun 3
Waxing Crescent
Jun 5
First Quarter
Jun 12
Full
Jun 19
Last Quarter
Jun 27
New

Hourly Weather History & Observations

Time (CDT) Temp. Heat Index Dew Point Humidity Pressure Visibility Wind Dir Wind Speed Gust Speed Precip Events Conditions
12:53 AM 60.1 °F - 54.0 °F 80% 29.96 in 10.0 mi East 6.9 mph - N/A   Clear
1:53 AM 57.9 °F - 54.0 °F 87% 29.96 in 10.0 mi ESE 5.8 mph - N/A   Partly Cloudy
2:53 AM 62.1 °F - 57.0 °F 84% 29.93 in 10.0 mi ESE 5.8 mph - N/A   Overcast
3:53 AM 63.0 °F - 57.0 °F 81% 29.90 in 10.0 mi East 8.1 mph - N/A   Clear
4:53 AM 63.0 °F - 59.0 °F 87% 29.88 in 10.0 mi East 5.8 mph - N/A   Mostly Cloudy
5:53 AM 66.0 °F - 62.1 °F 87% 29.87 in 10.0 mi ESE 6.9 mph - N/A   Scattered Clouds
6:53 AM 66.0 °F - 63.0 °F 90% 29.86 in 7.0 mi ESE 5.8 mph - N/A   Clear
7:40 AM 68.0 °F - 64.0 °F 87% 29.94 in 7.0 mi SE 11.5 mph - N/A   Mostly Cloudy
7:53 AM 68.0 °F - 64.0 °F 87% 29.87 in 7.0 mi SE 11.5 mph - N/A   Overcast
8:53 AM 69.1 °F - 64.0 °F 84% 29.86 in 7.0 mi ESE 13.8 mph - N/A   Overcast
9:01 AM 69.1 °F - 64.9 °F 87% 29.92 in 7.0 mi ESE 17.3 mph 23.0 mph N/A   Overcast
9:53 AM 70.0 °F - 66.0 °F 87% 29.85 in 8.0 mi ESE 13.8 mph - N/A   Overcast
10:07 AM 72.0 °F - 66.0 °F 81% 29.89 in 8.0 mi ESE 17.3 mph 21.9 mph N/A   Overcast
10:53 AM 69.1 °F - 61.0 °F 75% 29.83 in 10.0 mi ESE 21.9 mph 28.8 mph N/A   Overcast
11:18 AM 70.0 °F - 62.1 °F 76% 29.87 in 9.0 mi ESE 18.4 mph 27.6 mph N/A   Overcast
11:34 AM 71.1 °F - 63.0 °F 75% 29.85 in 8.0 mi ESE 21.9 mph 28.8 mph N/A   Mostly Cloudy
11:50 AM 73.4 °F - 64.4 °F 73% 29.84 in 8.0 mi SE 15.0 mph 23.0 mph N/A   Scattered Clouds
11:53 AM 73.9 °F - 64.9 °F 73% 29.78 in 8.0 mi ESE 23.0 mph 26.5 mph N/A   Scattered Clouds
12:53 PM 79.0 °F - 68.0 °F 69% 29.71 in 8.0 mi ESE 15.0 mph 23.0 mph N/A   Mostly Cloudy
1:53 PM 86.0 °F 88.2 °F 66.0 °F 51% 29.64 in 10.0 mi SSE 15.0 mph 32.2 mph N/A   Partly Cloudy
2:53 PM 91.0 °F 93.0 °F 64.9 °F 42% 29.58 in 10.0 mi South 19.6 mph 34.5 mph N/A   Scattered Clouds
3:53 PM 91.0 °F 93.0 °F 64.9 °F 42% 29.57 in 10.0 mi SSW 18.4 mph 33.4 mph N/A   Clear
4:53 PM 91.9 °F 93.3 °F 64.0 °F 39% 29.53 in 10.0 mi South 17.3 mph 26.5 mph N/A   Clear
5:46 PM 89.1 °F 89.0 °F 61.0 °F 39% 29.56 in 10.0 mi SSW 17.3 mph 26.5 mph N/A Thunderstorm Thunderstorm
5:53 PM 84.0 °F 85.8 °F 64.9 °F 53% 29.48 in 6.0 mi SSW 17.3 mph 26.5 mph 0.00 in Rain , Thunderstorm Light Thunderstorms and Rain
6:33 PM 73.0 °F - 64.0 °F 73% 29.57 in 10.0 mi North - - 0.09 in Thunderstorm Mostly Cloudy
6:49 PM 68.0 °F - 60.8 °F 78% 29.58 in 10.0 mi NNE 24.2 mph 36.8 mph 0.09 in   Partly Cloudy
6:53 PM 69.1 °F - 61.0 °F 75% 29.52 in 10.0 mi NNE 24.2 mph 34.5 mph 0.09 in   Partly Cloudy
7:53 PM 68.0 °F - 60.1 °F 76% 29.57 in 10.0 mi NE 17.3 mph - N/A   Clear
8:53 PM 66.9 °F - 57.9 °F 73% 29.64 in 10.0 mi ENE 8.1 mph - N/A   Clear
9:53 PM 62.6 °F - 55.4 °F 77% 29.76 in 10.0 mi NNE 23.0 mph 27.6 mph N/A   Clear
10:10 PM 62.1 °F - 57.0 °F 84% 29.77 in 10.0 mi NNE 23.0 mph 34.5 mph N/A   Mostly Cloudy
10:48 PM 60.8 °F - 57.2 °F 88% 29.79 in 10.0 mi NE 21.9 mph 29.9 mph N/A   Overcast
10:53 PM 61.0 °F - 57.0 °F 87% 29.74 in 10.0 mi NE 18.4 mph 29.9 mph N/A   Overcast
11:42 PM 61.0 °F - 57.0 °F 87% 29.80 in 10.0 mi ENE 13.8 mph 26.5 mph N/A   Overcast
11:53 PM 60.1 °F - 57.0 °F 90% 29.74 in 10.0 mi ENE 12.7 mph - N/A   Scattered Clouds